Flag for Canada Weather past 2 weeks in Corner Brook, Newfoundland and Labrador, Canada

Now
55 °F

Partly sunny.


Feels Like: 55 °F
Forecast: 56 / 79 °F
Wind: 3 mph from East

Location: Deer Lake

Current Time: Aug 4, 2015 at 8:17:10 AM

Latest Report: Aug 4, 2015 at 7:30 AM


Visibility: 15 mi

Pressure: 30.02 "Hg

Humidity: 94%

Dew point: 54 °F

Location of Corner BrookLocation

Historic Weather in Corner Brook — Graph

°F

Corner Brook temperature yesterday

Maximum temperature yesterday: 79 °F (at 3:30 PM)
Minimum temperature yesterday: 57 °F (at 1:30 AM)
Average temperature yesterday: 68 °F

Past Weeks' High & Low Weather Summary

 TemperatureHumidityPressure
High81 °F (Aug 1, 5:30 PM)100% (Jul 23, 2:30 AM)30.21 "Hg (Jul 23, 2:30 AM)
Low36 °F (Jul 26, 4:30 AM)32% (Jul 25, 5:30 PM)29.58 "Hg (Jul 23, 12:30 PM)
Average59 °F81%29.91 "Hg
* Reported Jul 20 6:30 AM — Aug 4 6:30 AM, Corner Brook, Weather by CustomWeather, © 2015

Note: Actual official high and low records may vary slightly from our data, if they occured in-between our weather recording intervals... More about our weather records

Advertising

Corner Brook weather history for previous 24 hours

 ConditionsComfort  
Time TempWeatherWind HumidityBarometerVisibility
6:30 AM
Tue, Aug 4
52 °FScattered clouds.3 mph100%30.01 "Hg15 mi
5:30 AM50 °FPassing clouds.3 mph100%30.01 "Hg15 mi
4:30 AM54 °FPassing clouds.3 mph94%30.00 "Hg15 mi
3:30 AM54 °FPassing clouds.3 mph94%29.99 "Hg15 mi
2:30 AM54 °FPassing clouds.3 mph94%30.00 "Hg15 mi
1:30 AM55 °FPassing clouds.No wind94%29.99 "Hg15 mi
12:30 AM55 °FPassing clouds.2 mph94%29.98 "Hg15 mi
11:30 PM
Mon, Aug 3
59 °FPassing clouds.2 mph94%29.98 "Hg15 mi
10:30 PM61 °FPassing clouds.2 mph88%29.96 "Hg15 mi
9:30 PM64 °FPassing clouds.No wind78%29.93 "Hg15 mi
8:30 PM72 °FPartly sunny.3 mph65%29.92 "Hg15 mi
7:30 PM75 °FPartly sunny.3 mph57%29.90 "Hg15 mi
6:30 PM75 °FPartly sunny.6 mph57%29.90 "Hg15 mi
5:30 PM79 °FPartly sunny.12 mph48%29.89 "Hg15 mi
4:30 PM79 °FPartly sunny.13 mph48%29.88 "Hg15 mi
3:30 PM79 °FPartly sunny.15 mph45%29.88 "Hg15 mi
2:30 PM77 °FPartly sunny.15 mph47%29.88 "Hg15 mi
1:30 PM77 °FPartly sunny.20 mph47%29.85 "Hg15 mi
12:30 PM75 °FPartly sunny.10 mph54%29.85 "Hg15 mi
11:30 AM73 °FPartly sunny.12 mph57%29.84 "Hg15 mi
10:30 AM70 °FPartly sunny.14 mph64%29.83 "Hg15 mi
9:30 AM68 °FPartly sunny.9 mph73%29.81 "Hg15 mi
8:30 AM66 °FScattered clouds.3 mph73%29.80 "Hg15 mi
Weather by CustomWeather, © 2015

See weather overviewHow to use our weather pages